This demonstration page uses our WeatherBlox Daily Observations layout. Learn more.

Left ArrowRight Arrow

Hourly Observations for May 13, 2016

Temp ( °F °C ) Dew Point ( °F °C ) Humidity (%) Winds ( mph kmh ) Pressure ( in mb ) Visibility ( mi km ) Precip ( " mm )
12:54 am 00:54 Clear 51 10.6 44 6.7 77 77 Calm 30.14 1021 9 14 0.00 0.00
1:54 am 01:54 Clear 50 10 45 7.2 83 83 Calm 30.13 1020 9 14 0.00 0.00
2:54 am 02:54 Clear 48 8.9 44 6.7 86 86 Calm 30.11 1020 9 14 0.00 0.00
3:54 am 03:54 Clear 49 9.4 45 7.2 86 86 S 3 6 30.08 1019 9 14 0.00 0.00
4:54 am 04:54 Clear 49 9.4 43 6.1 80 80 SSE 5 7 30.06 1018 9 14 0.00 0.00
5:54 am 05:54 Clear 48 8.9 42 5.6 80 80 SSE 5 7 30.04 1017 9 14 0.00 0.00
6:54 am 06:54 Sunny 50 10 43 6.1 77 77 SSE 3 6 30.02 1017 9 14 0.00 0.00
7:54 am 07:54 Sunny 56 13.3 49 9.4 77 77 S 6 9 29.99 1016 10 16 0.00 0.00
8:54 am 08:54 Sunny 64 17.8 49 9.4 58 58 SSW 14 22 29.97 1015 10 16 0.00 0.00
9:54 am 09:54 Sunny 70 21.1 51 10.6 51 51 SSW 14 22 29.93 1014 10 16 0.00 0.00
10:54 am 10:54 Sunny 74 23.3 51 10.6 45 45 W 15 24 29.93 1014 10 16 0.00 0.00
11:54 am 11:54 Sunny 76 24.4 52 11.1 43 43 WNW 22 35 29.93 1014 10 16 0.00 0.00
12:54 pm 12:54 Mostly Sunny 72 22.2 48 8.9 43 43 N 32 52 29.97 1015 10 16 0.00 0.00
1:54 pm 13:54 Sunny 65 18.3 44 6.7 47 47 N 35 56 30.04 1017 9 14 0.00 0.00
2:54 pm 14:54 Mostly Cloudy 59 15 42 5.6 54 54 N 32 52 30.11 1020 10 16 0.00 0.00
3:54 pm 15:54 Mostly Sunny 63 17.2 40 4.4 43 43 NNW 31 50 30.12 1020 10 16 0.00 0.00
4:54 pm 16:54 Mostly Cloudy 58 14.4 38 3.3 48 48 N 28 44 30.16 1021 10 16 0.00 0.00
5:54 pm 17:54 Mostly Cloudy 57 13.9 34 1.1 42 42 N 25 41 30.18 1022 10 16 0.00 0.00
6:54 pm 18:54 Partly Cloudy 56 13.3 33 0.6 42 42 N 24 39 30.20 1023 10 16 0.00 0.00
7:54 pm 19:54 Partly Cloudy 52 11.1 33 0.6 49 49 N 18 30 30.22 1023 10 16 0.00 0.00
8:54 pm 20:54 Clear 50 10 30 -1.1 46 46 N 18 30 30.24 1024 10 16 0.00 0.00
9:54 pm 21:54 Clear 48 8.9 29 -1.7 48 48 N 18 30 30.26 1025 10 16 0.00 0.00
10:54 pm 22:54 Clear 47 8.3 29 -1.7 50 50 N 17 28 30.27 1025 10 16 0.00 0.00
11:54 pm 23:54 Mostly Cloudy 46 7.8 27 -2.8 47 47 N 20 31 30.28 1025 10 16 0.00 0.00

Powered by AerisWeather